Regional Weather Roundup
Issued by NWS Albany, NY

Home | Current Version | Previous Version | Graphics & Text | Print | Product List | Glossary Off
Versions: 1 2 3 4 5 6 7 8 9 10 11 12 13 14 15 16 17 18 19 20 21 22 23 24 25 26 27

000
ASUS41 KALY 302010
RWRALY

NEW YORK STATE HOURLY WEATHER ROUNDUP
NATIONAL WEATHER SERVICE ALBANY NY
400 PM EDT MON MAY 30 2016

NOTE: "FAIR" INDICATES FEW OR NO CLOUDS BELOW 12,000 FEET WITH NO
SIGNIFICANT WEATHER AND/OR NO OBSTRUCTIONS TO VISIBILITY.

NYZ032-033-038>043-046>054-057>066-NYZ062>081-082-084-302100-
EAST


CITY           SKY/WX    TMP DP  RH WIND       PRES   REMARKS
ALBANY         PTSUNNY   84  65  52 S12       29.86F
GLENS FALLS    MOSUNNY   85  66  53 S13       29.83F
POUGHKEEPSIE   MOSUNNY   84  65  52 VRB7      29.89F
NEWBURGH       MOSUNNY   81  66  61 VRB6      29.93F
MONTGOMERY     MOSUNNY   83  66  56 SW13      29.91F
WHITE PLAINS   CLOUDY    78  69  73 S9        29.93F
ISLIP          CLOUDY    70  66  87 S9        29.95F FOG
NEW YORK CITY  CLOUDY    78  73  84 S13       29.92F
CENTRAL PARK   CLOUDY    77  68  73 CALM      29.96F
$$

NYZ005>009-017-018-044>046-055-056-302100-
CENTRAL


CITY           SKY/WX    TMP DP  RH WIND       PRES   REMARKS
FULTON         MOSUNNY   82  62  50 NW10      29.91S
SYRACUSE       PTSUNNY   83  58  42 NW10      29.88F
ROME           SUNNY     82  58  43 W18       29.89F
ELMIRA         MOSUNNY   86  55  34 N9G18     29.90F
BINGHAMTON     LGT RAIN  71  63  75 SW9       29.95S
MONTICELLO     PTSUNNY   81  63  54 S8        29.96F
$$

NYZ026>034-041>043-087-302100-
NORTH


CITY           SKY/WX    TMP DP  RH WIND       PRES   REMARKS
WATERTOWN      SUNNY     75  58  55 SW13      29.88F
FORT DRUM      NOT AVBL
MASSENA        MOSUNNY   84  59  42 SW16G30   29.80F
SARANAC LAKE   MOSUNNY   78  52  40 W13G28    29.87R
PLATTSBURGH    MOSUNNY   89  56  32 VRB7      29.77S
$$

NYZ001>004-010>016-019>021-085-302100-
WEST


CITY           SKY/WX    TMP DP  RH WIND       PRES   REMARKS
NIAGARA FALLS  LGT RAIN  78  58  49 SW15G21   29.93S
BUFFALO        PTSUNNY   77  57  50 W18G29    29.95S
DUNKIRK        LGT RAIN  79  56  45 W13G24    29.98S
JAMESTOWN      MOSUNNY   75  54  46 W10G17    30.02F
WELLSVILLE     MOSUNNY   78  55  44 NW10      30.01S
ROCHESTER      PTSUNNY   82  60  47 W13G23    29.91F
PENN YAN       MOSUNNY   80  57  45 VRB7      29.93F
$$

             KEY
       WCI = WIND CHILL INDEX
       VSB = VISIBILITY
       HX  = HEAT INDEX
$$




USA.gov is the U.S. government's official web portal to all federal, state and local government web resources and services.